カタログに戻る

SL-8 DEB

運用中LEO
NORAD 39840·DEBRIS·🇷🇺 Russia

打ち上げ Feb 12, 1991 から Plesetsk Cosmodrome

Loading…

次のパス (今後24時間)

TLE

古いSource: Space-Track

元期: Aug 29, 2026, 14:36 UTC

1 39840U 91009DY  26241.60835742  .00002426  00000-0  28211-2 0  9993
2 39840  73.7856 323.8489 0103128  70.0924 356.4508 13.67062216604102

AllMySatでSL-8 DEBをリアルタイム追跡

Download on the App Store